Location: Fond Mahaut
(18.0707°N, 63.0465°W)
Time: 06:47:05
(UTC+00:00)

Envisat - Pass Details

Date: 08 December 2019
Orbit: 764 x 766 km, 98.1° (Epoch: 20 January)

Event Time Altitude Azimuth Distance (km) Brightness Sun altitude
Rises 22:03:04 0° 155° (SSE) 3,219 6.2 -6.7°
Reaches altitude 10° 22:05:26 10° 150° (SSE) 2,295 5.4 -7.2°
Maximum altitude 22:10:18 49° 76° (ENE) 977 3.2 -8.2°
Drops below altitude 10° 22:15:10 10° 2° (N) 2,300 5.2 -9.3°
Sets 22:17:32 0° 357° (N) 3,227 6.0 -9.9°
